Location: Cheyres
(46.8153°N, 6.7877°E)
Time: 05:30:24
(UTC+00:00)

N. Korean satellite - Visible Passes

Search period start: 18 January 2022 00:00
Search period end: 28 January 2022 00:00
Orbit: 446 x 492 km, 97.3° (Epoch: 17 January)

Date Brightness Start Highest point End Pass type
(mag) Time Alt. Az. Time Alt. Az. Time Alt. Az.
18 Jan 8.0 05:00:35 10° N 05:02:21 27° N 05:02:21 27° N visible
18 Jan 10.2 17:13:14 10° W 17:13:52 10° W 17:14:31 10° WNW visible
19 Jan 8.6 04:31:36 10° NNE 04:33:16 24° NE 04:33:16 24° NE visible
19 Jan 8.3 06:05:47 10° NNW 06:07:20 15° NW 06:07:20 15° NW visible
20 Jan 9.4 04:03:02 10° NE 04:04:12 16° ENE 04:04:12 16° ENE visible
20 Jan 7.6 05:35:51 10° N 05:38:15 27° NW 05:38:15 27° NW visible
21 Jan 7.0 05:06:25 10° N 05:09:11 47° NNW 05:09:11 47° NNW visible
22 Jan 7.6 04:37:19 10° NNE 04:40:06 43° NE 04:40:06 43° NE visible
22 Jan 8.4 06:11:51 10° NNW 06:13:37 13° WNW 06:14:09 13° WNW visible
22 Jan 9.6 16:47:43 10° SW 16:50:18 19° W 16:52:55 10° NW visible
23 Jan 8.9 04:08:36 10° NE 04:11:00 23° ENE 04:11:00 23° ENE visible
23 Jan 7.6 05:41:41 10° NNW 05:44:44 26° WNW 05:45:04 25° WNW visible
24 Jan 9.9 03:40:51 10° ENE 03:41:55 12° E 03:41:55 12° E visible
24 Jan 6.6 05:12:08 10° N 05:15:42 55° WNW 05:15:59 53° W visible
25 Jan 6.9 04:42:54 10° NNE 04:46:33 64° E 04:46:53 60° SE visible
25 Jan 8.5 06:17:52 10° NW 06:19:11 12° WNW 06:20:29 10° W visible
25 Jan 9.7 16:53:34 10° SW 16:55:55 17° W 16:58:19 10° NW visible
26 Jan 8.6 04:14:03 10° NE 04:17:15 28° E 04:17:48 27° ESE visible
26 Jan 7.7 05:47:22 10° NNW 05:50:16 22° WNW 05:51:52 17° WSW visible
27 Jan 9.7 03:45:55 10° ENE 03:47:48 14° E 03:48:44 13° ESE visible
27 Jan 6.8 05:17:41 10° N 05:21:12 47° WNW 05:22:47 27° SW visible
